| time (UTC) | temp F | wind direction | speed MPH | gust MPH | rain 1hr in | rain 24hr in | rain mn in | humidity % | barometer mb |
| 20260901232056 | 60 | 217 | 0.0 | 0.0 | 0.00 | 0.80 | 0.43 | 97 | 1016.3 |
| 20260901231558 | 60 | 217 | 0.0 | 0.0 | 0.00 | 0.80 | 0.43 | 97 | 1016.4 |
| 20260901231055 | 60 | 217 | 0.0 | 0.0 | 0.00 | 0.80 | 0.43 | 97 | 1016.5 |
| 20260901230554 | 60 | 217 | 0.0 | 0.0 | 0.01 | 0.80 | 0.43 | 97 | 1016.4 |
| 20260901230056 | 60 | 217 | 0.0 | 0.0 | 0.01 | 0.80 | 0.43 | 97 | 1016.4 |
| 20260901225554 | 60 | 217 | 0.0 | 0.0 | 0.01 | 0.80 | 0.43 | 97 | 1016.4 |
| 20260901225053 | 60 | 217 | 0.0 | 0.0 | 0.01 | 0.80 | 0.43 | 97 | 1016.3 |
| 20260901224558 | 60 | 211 | 0.0 | 0.0 | 0.01 | 0.80 | 0.43 | 97 | 1016.2 |
| 20260901223546 | 60 | 211 | 0.0 | 0.0 | 0.01 | 0.80 | 0.43 | 97 | 1016.2 |
| 20260901223048 | 60 | 211 | 0.0 | 0.0 | 0.01 | 0.80 | 0.43 | 97 | 1016.3 |
| 20260901222545 | 60 | 211 | 0.0 | 0.0 | 0.01 | 0.80 | 0.43 | 97 | 1016.3 |
| 20260901222045 | 60 | 211 | 0.0 | 0.0 | 0.01 | 0.80 | 0.43 | 97 | 1016.4 |
| 20260901221546 | 60 | 211 | 0.0 | 0.0 | 0.01 | 0.80 | 0.43 | 97 | 1016.4 |
| 20260901221046 | 60 | 211 | 0.0 | 0.0 | 0.01 | 0.80 | 0.43 | 97 | 1016.4 |
| 20260901220546 | 60 | 211 | 0.0 | 0.0 | 0.01 | 0.79 | 0.42 | 97 | 1016.4 |
| 20260901220046 | 60 | 211 | 0.0 | 0.0 | 0.01 | 0.79 | 0.42 | 97 | 1016.4 |
| 20260901215545 | 60 | 210 | 0.0 | 0.0 | 0.02 | 0.79 | 0.42 | 97 | 1016.4 |
| 20260901215046 | 60 | 210 | 0.0 | 0.0 | 0.02 | 0.79 | 0.42 | 97 | 1016.4 |
| 20260901214548 | 60 | 210 | 0.0 | 0.0 | 0.03 | 0.79 | 0.42 | 97 | 1016.5 |
| 20260901213548 | 60 | 210 | 0.0 | 0.0 | 0.04 | 0.79 | 0.42 | 97 | 1016.4 |
| 20260901213045 | 60 | 210 | 0.0 | 0.0 | 0.05 | 0.79 | 0.42 | 97 | 1016.3 |
| 20260901212544 | 60 | 354 | 0.0 | 0.0 | 0.06 | 0.79 | 0.42 | 96 | 1016.3 |
| 20260901212044 | 59 | 354 | 0.0 | 0.0 | 0.07 | 0.79 | 0.42 | 96 | 1016.4 |
| 20260901211544 | 59 | 354 | 0.0 | 0.0 | 0.08 | 0.79 | 0.42 | 96 | 1016.3 |
| 20260901211044 | 59 | 354 | 0.0 | 0.0 | 0.08 | 0.79 | 0.42 | 96 | 1016.3 |
| 20260901210543 | 59 | 354 | 0.0 | 0.0 | 0.08 | 0.78 | 0.41 | 96 | 1016.3 |
| 20260901210042 | 60 | 354 | 0.0 | 0.0 | 0.08 | 0.78 | 0.41 | 96 | 1016.3 |
| 20260901205541 | 60 | 354 | 0.0 | 0.0 | 0.08 | 0.78 | 0.41 | 96 | 1016.3 |
| 20260901205040 | 60 | 354 | 0.0 | 0.0 | 0.07 | 0.77 | 0.40 | 96 | 1016.2 |
| 20260901204539 | 60 | 355 | 0.0 | 0.0 | 0.07 | 0.76 | 0.39 | 96 | 1016.1 |
| 20260901203537 | 60 | 354 | 0.0 | 0.0 | 0.06 | 0.75 | 0.38 | 96 | 1016.1 |
| 20260901203042 | 61 | 355 | 0.0 | 0.0 | 0.05 | 0.74 | 0.37 | 96 | 1016.1 |
| 20260901202536 | 61 | 355 | 0.0 | 0.0 | 0.04 | 0.73 | 0.36 | 96 | 1016.1 |
| 20260901202038 | 61 | 355 | 0.0 | 0.0 | 0.04 | 0.73 | 0.36 | 96 | 1016.0 |
| 20260901201536 | 61 | 355 | 0.0 | 0.0 | 0.03 | 0.72 | 0.35 | 96 | 1016.0 |
| 20260901201034 | 61 | 355 | 0.0 | 0.0 | 0.02 | 0.71 | 0.34 | 96 | 1016.0 |
| 20260901200537 | 61 | 355 | 0.0 | 0.0 | 0.02 | 0.71 | 0.34 | 96 | 1016.0 |
| 20260901200049 | 61 | 355 | 0.0 | 0.0 | 0.01 | 0.70 | 0.33 | 96 | 1016.0 |
| 20260901195535 | 61 | 355 | 0.0 | 0.0 | 0.01 | 0.70 | 0.33 | 96 | 1015.8 |
| 20260901195035 | 61 | 355 | 0.0 | 0.0 | 0.01 | 0.70 | 0.33 | 96 | 1015.8 |
| 20260901194544 | 61 | 359 | 0.0 | 0.0 | 0.00 | 0.69 | 0.32 | 96 | 1015.8 |
| 20260901193538 | 61 | 359 | 0.0 | 0.0 | 0.00 | 0.69 | 0.32 | 96 | 1015.8 |
| 20260901193035 | 61 | 359 | 0.0 | 0.0 | 0.00 | 0.69 | 0.32 | 96 | 1015.9 |
| 20260901192535 | 62 | 6 | 0.0 | 0.0 | 0.00 | 0.69 | 0.32 | 96 | 1015.7 |
| 20260901192035 | 62 | 6 | 0.0 | 0.0 | 0.00 | 0.69 | 0.32 | 96 | 1015.5 |
| 20260901191541 | 62 | 6 | 0.0 | 0.0 | 0.01 | 0.69 | 0.32 | 96 | 1015.5 |
| 20260901191035 | 62 | 6 | 0.0 | 0.0 | 0.01 | 0.69 | 0.32 | 96 | 1015.5 |
| 20260901190534 | 62 | 6 | 0.0 | 0.0 | 0.04 | 0.69 | 0.32 | 96 | 1015.5 |
| 20260901190042 | 62 | 6 | 0.0 | 0.0 | 0.06 | 0.69 | 0.32 | 96 | 1015.4 |
| 20260901185534 | 62 | 6 | 0.0 | 0.0 | 0.09 | 0.69 | 0.32 | 96 | 1015.4 |
| 20260901185034 | 62 | 6 | 0.0 | 0.0 | 0.13 | 0.69 | 0.32 | 96 | 1015.5 |
| 20260901184540 | 62 | 1 | 0.0 | 0.0 | 0.19 | 0.69 | 0.32 | 96 | 1015.4 |
| 20260901183535 | 62 | 1 | 0.0 | 0.0 | 0.21 | 0.69 | 0.32 | 96 | 1015.4 |
| 20260901183036 | 62 | 46 | 0.0 | 0.0 | 0.23 | 0.69 | 0.32 | 96 | 1015.3 |
| 20260901182537 | 62 | 46 | 0.0 | 0.0 | 0.23 | 0.69 | 0.32 | 96 | 1015.4 |
| 20260901182036 | 62 | 46 | 0.0 | 0.0 | 0.23 | 0.69 | 0.32 | 96 | 1015.4 |
| 20260901181536 | 62 | 56 | 0.0 | 0.0 | 0.22 | 0.68 | 0.31 | 96 | 1015.2 |
| 20260901181035 | 61 | 56 | 0.0 | 0.0 | 0.22 | 0.68 | 0.31 | 96 | 1015.2 |
| 20260901180535 | 61 | 56 | 0.0 | 0.0 | 0.21 | 0.67 | 0.30 | 96 | 1015.3 |
| 20260901180035 | 61 | 56 | 0.0 | 0.0 | 0.19 | 0.65 | 0.28 | 96 | 1015.3 |
| 20260901175538 | 61 | 77 | 0.0 | 0.0 | 0.16 | 0.62 | 0.25 | 96 | 1015.1 |
| 20260901175034 | 61 | 352 | 0.0 | 0.0 | 0.13 | 0.59 | 0.22 | 96 | 1015.5 |
| 20260901174539 | 61 | 347 | 0.0 | 0.0 | 0.05 | 0.51 | 0.14 | 96 | 1016.0 |
| 20260901173530 | 61 | 1 | 0.0 | 0.0 | 0.04 | 0.49 | 0.12 | 96 | 1015.8 |
| 20260901173034 | 61 | 1 | 0.0 | 0.0 | 0.02 | 0.47 | 0.10 | 96 | 1015.7 |
| 20260901172529 | 61 | 1 | 0.0 | 0.0 | 0.02 | 0.46 | 0.09 | 95 | 1015.5 |
| 20260901172030 | 61 | 1 | 0.0 | 0.0 | 0.02 | 0.46 | 0.09 | 96 | 1015.5 |
| 20260901171528 | 61 | 59 | 0.0 | 0.0 | 0.03 | 0.46 | 0.09 | 96 | 1015.4 |
| 20260901171029 | 61 | 59 | 0.0 | 0.0 | 0.04 | 0.46 | 0.09 | 95 | 1015.4 |
| 20260901170528 | 61 | 59 | 0.0 | 0.0 | 0.04 | 0.46 | 0.09 | 95 | 1015.4 |
| 20260901170027 | 61 | 62 | 0.0 | 0.0 | 0.05 | 0.46 | 0.09 | 95 | 1015.6 |
| 20260901165527 | 61 | 9 | 0.0 | 0.0 | 0.06 | 0.46 | 0.09 | 95 | 1015.5 |
| 20260901165031 | 61 | 358 | 0.0 | 0.0 | 0.07 | 0.46 | 0.09 | 95 | 1015.5 |
| 20260901164526 | 61 | 42 | 0.0 | 0.0 | 0.09 | 0.46 | 0.09 | 95 | 1015.5 |
| 20260901163524 | 62 | 78 | 0.0 | 0.0 | 0.10 | 0.46 | 0.09 | 95 | 1015.5 |
| 20260901163028 | 62 | 64 | 0.0 | 0.0 | 0.09 | 0.45 | 0.08 | 95 | 1015.5 |
| 20260901162523 | 62 | 334 | 0.0 | 0.0 | 0.10 | 0.45 | 0.08 | 95 | 1015.5 |
| 20260901162023 | 62 | 124 | 0.0 | 0.0 | 0.10 | 0.44 | 0.07 | 95 | 1015.5 |
| 20260901161524 | 62 | 63 | 0.0 | 0.0 | 0.09 | 0.43 | 0.06 | 94 | 1015.5 |
| 20260901161021 | 62 | 75 | 0.0 | 0.0 | 0.11 | 0.43 | 0.06 | 94 | 1015.6 |
| 20260901160521 | 62 | 70 | 0.0 | 0.0 | 0.10 | 0.42 | 0.05 | 94 | 1015.5 |
| 20260901160021 | 62 | 70 | 0.0 | 0.0 | 0.11 | 0.42 | 0.05 | 94 | 1015.7 |
| 20260901155518 | 63 | 27 | 0.0 | 0.0 | 0.12 | 0.41 | 0.04 | 94 | 1015.8 |
| 20260901155019 | 63 | 63 | 0.0 | 0.0 | 0.12 | 0.39 | 0.02 | 94 | 1015.8 |
| 20260901154516 | 64 | 72 | 0.0 | 0.0 | 0.15 | 0.37 | 0.00 | 94 | 1015.8 |
| 20260901153521 | 64 | 352 | 0.0 | 0.0 | 0.16 | 0.37 | 0.00 | 94 | 1015.8 |
| 20260901153017 | 64 | 53 | 0.0 | 0.0 | 0.16 | 0.36 | 0.36 | 94 | 1015.8 |
| 20260901152516 | 65 | 68 | 0.0 | 0.0 | 0.17 | 0.35 | 0.35 | 95 | 1015.8 |
| 20260901152018 | 65 | 68 | 0.0 | 0.0 | 0.17 | 0.34 | 0.34 | 94 | 1015.8 |
| 20260901151529 | 65 | 68 | 0.0 | 0.0 | 0.19 | 0.34 | 0.34 | 95 | 1015.8 |
| 20260901151015 | 65 | 68 | 0.0 | 0.0 | 0.20 | 0.33 | 0.33 | 95 | 1015.7 |
| 20260901150515 | 65 | 68 | 0.0 | 0.0 | 0.23 | 0.32 | 0.32 | 94 | 1015.8 |
| 20260901150020 | 65 | 68 | 0.0 | 0.0 | 0.26 | 0.32 | 0.32 | 94 | 1015.9 |
| 20260901145515 | 65 | 68 | 0.0 | 0.0 | 0.24 | 0.30 | 0.30 | 94 | 1015.8 |
| 20260901145015 | 65 | 68 | 0.0 | 0.0 | 0.22 | 0.28 | 0.28 | 94 | 1015.7 |
| 20260901144518 | 65 | 63 | 0.0 | 0.0 | 0.21 | 0.26 | 0.26 | 94 | 1015.6 |
| 20260901143512 | 65 | 262 | 0.0 | 0.0 | 0.17 | 0.22 | 0.22 | 93 | 1015.8 |
| 20260901143010 | 66 | 262 | 0.0 | 0.0 | 0.16 | 0.21 | 0.21 | 93 | 1015.8 |
| 20260901142509 | 66 | 262 | 0.0 | 0.0 | 0.14 | 0.19 | 0.19 | 93 | 1016.0 |
| 20260901142009 | 67 | 262 | 0.0 | 0.0 | 0.13 | 0.18 | 0.18 | 93 | 1016.0 |
| 20260901141509 | 68 | 259 | 0.0 | 0.0 | 0.12 | 0.16 | 0.16 | 94 | 1016.3 |
| 20260901141009 | 68 | 259 | 0.0 | 0.0 | 0.10 | 0.14 | 0.14 | 94 | 1016.4 |
| 20260901140509 | 68 | 259 | 0.0 | 0.0 | 0.08 | 0.11 | 0.11 | 93 | 1016.3 |
| 20260901140007 | 68 | 257 | 0.0 | 0.0 | 0.05 | 0.07 | 0.07 | 94 | 1016.2 |
| 20260901135508 | 68 | 257 | 0.0 | 0.0 | 0.05 | 0.06 | 0.06 | 94 | 1015.9 |
| 20260901135007 | 68 | 257 | 0.0 | 0.0 | 0.06 | 0.06 | 0.06 | 94 | 1015.6 |
| 20260901134508 | 68 | 257 | 0.0 | 0.0 | 0.05 | 0.05 | 0.05 | 93 | 1015.6 |
| 20260901133508 | 68 | 257 | 0.0 | 0.0 | 0.05 | 0.05 | 0.05 | 93 | 1015.4 |
| 20260901133006 | 68 | 257 | 0.0 | 0.0 | 0.05 | 0.05 | 0.05 | 93 | 1015.3 |
| 20260901132506 | 68 | 257 | 0.0 | 0.0 | 0.05 | 0.05 | 0.05 | 93 | 1015.4 |
| 20260901132006 | 68 | 257 | 0.0 | 0.0 | 0.05 | 0.05 | 0.05 | 92 | 1015.4 |
| 20260901131506 | 68 | 257 | 0.0 | 0.0 | 0.05 | 0.05 | 0.05 | 92 | 1015.5 |
| 20260901131005 | 68 | 257 | 0.0 | 0.0 | 0.04 | 0.04 | 0.04 | 92 | 1015.4 |
| 20260901130506 | 68 | 257 | 0.0 | 0.0 | 0.04 | 0.04 | 0.04 | 91 | 1015.4 |
| 20260901130005 | 68 | 257 | 0.0 | 0.0 | 0.03 | 0.03 | 0.03 | 91 | 1015.4 |
| 20260901125505 | 68 | 257 | 0.0 | 0.0 | 0.02 | 0.02 | 0.02 | 91 | 1015.4 |
| 20260901125005 | 68 | 257 | 0.0 | 0.0 | 0.00 | 0.00 | 0.00 | 90 | 1015.4 |
| 20260901124505 | 68 | 257 | 0.0 | 0.0 | 0.00 | 0.00 | 0.00 | 90 | 1015.4 |
| 20260901123505 | 68 | 257 | 0.0 | 0.0 | 0.00 | 0.00 | 0.00 | 90 | 1015.4 |
| 20260901123005 | 68 | 257 | 0.0 | 0.0 | 0.00 | 0.00 | 0.00 | 90 | 1015.5 |
| 20260901122505 | 68 | 257 | 0.0 | 0.0 | 0.00 | 0.00 | 0.00 | 90 | 1015.5 |
| 20260901122005 | 68 | 257 | 0.0 | 0.0 | 0.00 | 0.00 | 0.00 | 91 | 1015.3 |
| 20260901121505 | 68 | 257 | 0.0 | 0.0 | 0.00 | 0.00 | 0.00 | 91 | 1015.4 |
| 20260901121005 | 68 | 257 | 0.0 | 0.0 | 0.00 | 0.00 | 0.00 | 91 | 1015.4 |
| 20260901120504 | 68 | 257 | 0.0 | 0.0 | 0.00 | 0.00 | 0.00 | 92 | 1015.4 |
| 20260901120005 | 68 | 257 | 0.0 | 0.0 | 0.00 | 0.00 | 0.00 | 92 | 1015.3 |
| 20260901115504 | 68 | 257 | 0.0 | 0.0 | 0.00 | 0.00 | 0.00 | 93 | 1015.3 |
| 20260901115004 | 68 | 257 | 0.0 | 0.0 | 0.00 | 0.00 | 0.00 | 93 | 1015.4 |
| 20260901114504 | 68 | 257 | 0.0 | 0.0 | 0.00 | 0.00 | 0.00 | 93 | 1015.4 |
| 20260901113504 | 68 | 257 | 0.0 | 0.0 | 0.00 | 0.00 | 0.00 | 93 | 1015.5 |
| 20260901113007 | 67 | 257 | 0.0 | 0.0 | 0.00 | 0.00 | 0.00 | 93 | 1015.3 |
| 20260901112504 | 67 | 257 | 0.0 | 0.0 | 0.00 | 0.00 | 0.00 | 93 | 1015.3 |
| 20260901112006 | 67 | 257 | 0.0 | 0.0 | 0.00 | 0.00 | 0.00 | 93 | 1015.3 |
| 20260901111504 | 67 | 257 | 0.0 | 0.0 | 0.00 | 0.00 | 0.00 | 93 | 1015.3 |
| 20260901111006 | 67 | 257 | 0.0 | 0.0 | 0.00 | 0.00 | 0.00 | 93 | 1015.3 |
| 20260901110503 | 67 | 257 | 0.0 | 0.0 | 0.00 | 0.00 | 0.00 | 93 | 1015.2 |
| 20260901110003 | 67 | 257 | 0.0 | 0.0 | 0.00 | 0.00 | 0.00 | 93 | 1015.2 |
| 20260901105504 | 67 | 257 | 0.0 | 0.0 | 0.00 | 0.00 | 0.00 | 93 | 1015.3 |
| 20260901105004 | 67 | 257 | 0.0 | 0.0 | 0.00 | 0.00 | 0.00 | 93 | 1015.2 |
| 20260901104502 | 67 | 257 | 0.0 | 0.0 | 0.00 | 0.00 | 0.00 | 93 | 1015.2 |
| 20260901103505 | 67 | 257 | 0.0 | 0.0 | 0.00 | 0.00 | 0.00 | 93 | 1015.0 |
| 20260901103003 | 67 | 257 | 0.0 | 0.0 | 0.00 | 0.00 | 0.00 | 93 | 1015.0 |
| 20260901102504 | 67 | 257 | 0.0 | 0.0 | 0.00 | 0.00 | 0.00 | 93 | 1015.0 |
| 20260901102004 | 67 | 257 | 0.0 | 0.0 | 0.00 | 0.00 | 0.00 | 93 | 1014.9 |
| 20260901101510 | 67 | 257 | 0.0 | 0.0 | 0.00 | 0.00 | 0.00 | 93 | 1014.8 |
| 20260901101005 | 67 | 257 | 0.0 | 0.0 | 0.00 | 0.00 | 0.00 | 93 | 1014.9 |
| 20260901100502 | 67 | 257 | 0.0 | 0.0 | 0.00 | 0.00 | 0.00 | 93 | 1014.9 |
| 20260901100002 | 67 | 257 | 0.0 | 0.0 | 0.00 | 0.00 | 0.00 | 93 | 1014.9 |
| 20260901095502 | 67 | 257 | 0.0 | 0.0 | 0.00 | 0.00 | 0.00 | 93 | 1014.9 |
| 20260901095002 | 67 | 257 | 0.0 | 0.0 | 0.00 | 0.00 | 0.00 | 93 | 1014.8 |
| 20260901094502 | 67 | 257 | 0.0 | 0.0 | 0.00 | 0.00 | 0.00 | 93 | 1014.8 |
| 20260901093509 | 67 | 257 | 0.0 | 0.0 | 0.00 | 0.00 | 0.00 | 92 | 1014.9 |
| 20260901093009 | 67 | 257 | 0.0 | 0.0 | 0.00 | 0.00 | 0.00 | 92 | 1014.9 |
| 20260901092509 | 67 | 257 | 0.0 | 0.0 | 0.00 | 0.00 | 0.00 | 92 | 1014.9 |
| 20260901092009 | 67 | 257 | 0.0 | 0.0 | 0.00 | 0.00 | 0.00 | 92 | 1014.9 |
| 20260901091509 | 67 | 257 | 0.0 | 0.0 | 0.00 | 0.00 | 0.00 | 92 | 1014.9 |
| 20260901091008 | 67 | 257 | 0.0 | 0.0 | 0.00 | 0.00 | 0.00 | 92 | 1014.8 |
| 20260901090511 | 67 | 257 | 0.0 | 0.0 | 0.00 | 0.00 | 0.00 | 92 | 1014.8 |
| 20260901090012 | 67 | 257 | 0.0 | 0.0 | 0.00 | 0.00 | 0.00 | 92 | 1014.8 |
| 20260901085507 | 67 | 257 | 0.0 | 0.0 | 0.00 | 0.00 | 0.00 | 92 | 1014.9 |
| 20260901085007 | 67 | 257 | 0.0 | 0.0 | 0.00 | 0.00 | 0.00 | 92 | 1014.9 |
| 20260901084505 | 67 | 257 | 0.0 | 0.0 | 0.00 | 0.00 | 0.00 | 91 | 1015.0 |
| 20260901083556 | 67 | 257 | 0.0 | 0.0 | 0.00 | 0.00 | 0.00 | 91 | 1015.3 |
| 20260901083100 | 67 | 257 | 0.0 | 0.0 | 0.00 | 0.00 | 0.00 | 91 | 1015.5 |
| 20260901082555 | 67 | 257 | 0.0 | 0.0 | 0.00 | 0.00 | 0.00 | 91 | 1015.6 |
| 20260901082054 | 67 | 257 | 0.0 | 0.0 | 0.00 | 0.00 | 0.00 | 91 | 1015.7 |
| 20260901081554 | 67 | 257 | 0.0 | 0.0 | 0.00 | 0.00 | 0.00 | 91 | 1015.9 |
| 20260901081054 | 67 | 257 | 0.0 | 0.0 | 0.00 | 0.00 | 0.00 | 91 | 1015.9 |
| 20260901080554 | 67 | 257 | 0.0 | 0.0 | 0.00 | 0.00 | 0.00 | 91 | 1015.8 |
| 20260901080057 | 67 | 257 | 0.0 | 0.0 | 0.00 | 0.00 | 0.00 | 90 | 1015.8 |
| 20260901075553 | 67 | 257 | 0.0 | 0.0 | 0.00 | 0.00 | 0.00 | 90 | 1015.7 |
| 20260901075058 | 67 | 257 | 0.0 | 0.0 | 0.00 | 0.00 | 0.00 | 90 | 1015.7 |
| 20260901074553 | 67 | 257 | 0.0 | 0.0 | 0.00 | 0.00 | 0.00 | 90 | 1015.7 |
| 20260901073554 | 67 | 257 | 0.0 | 0.0 | 0.00 | 0.00 | 0.00 | 90 | 1015.8 |
| 20260901073053 | 67 | 257 | 0.0 | 0.0 | 0.00 | 0.00 | 0.00 | 90 | 1015.7 |
| 20260901072553 | 67 | 257 | 0.0 | 0.0 | 0.00 | 0.00 | 0.00 | 90 | 1015.6 |
| 20260901072055 | 67 | 257 | 0.0 | 0.0 | 0.00 | 0.00 | 0.00 | 90 | 1015.5 |
| 20260901071553 | 67 | 257 | 0.0 | 0.0 | 0.00 | 0.00 | 0.00 | 90 | 1015.5 |
| 20260901071151 | 67 | 257 | 0.0 | 0.0 | 0.00 | 0.00 | 0.00 | 90 | 1015.5 |
| 20260901070551 | 67 | 257 | 0.0 | 0.0 | 0.00 | 0.00 | 0.00 | 90 | 1015.6 |
| 20260901070056 | 67 | 257 | 0.0 | 0.0 | 0.00 | 0.00 | 0.00 | 89 | 1015.6 |
| 20260901065550 | 67 | 257 | 0.0 | 0.0 | 0.00 | 0.00 | 0.00 | 89 | 1015.5 |
| 20260901065051 | 68 | 257 | 0.0 | 0.0 | 0.00 | 0.00 | 0.00 | 89 | 1015.8 |
| 20260901064549 | 68 | 257 | 0.0 | 0.0 | 0.00 | 0.00 | 0.00 | 89 | 1015.8 |
| 20260901063548 | 68 | 257 | 0.0 | 0.0 | 0.00 | 0.00 | 0.00 | 88 | 1016.0 |
| 20260901063052 | 68 | 257 | 0.0 | 0.0 | 0.00 | 0.00 | 0.00 | 88 | 1016.1 |
| 20260901062551 | 68 | 257 | 0.0 | 0.0 | 0.00 | 0.00 | 0.00 | 88 | 1016.2 |
| 20260901062049 | 68 | 257 | 0.0 | 0.0 | 0.00 | 0.00 | 0.00 | 87 | 1016.2 |
| 20260901061548 | 68 | 257 | 0.0 | 0.0 | 0.00 | 0.00 | 0.00 | 87 | 1016.2 |
| 20260901061048 | 68 | 257 | 0.0 | 0.0 | 0.00 | 0.00 | 0.00 | 87 | 1016.1 |
| 20260901060547 | 68 | 257 | 0.0 | 0.0 | 0.00 | 0.00 | 0.00 | 87 | 1016.1 |
| 20260901060047 | 68 | 257 | 0.0 | 0.0 | 0.00 | 0.00 | 0.00 | 87 | 1016.0 |
| 20260901055547 | 68 | 257 | 0.0 | 0.0 | 0.00 | 0.00 | 0.00 | 87 | 1016.0 |
| 20260901055047 | 68 | 257 | 0.0 | 0.0 | 0.00 | 0.00 | 0.00 | 87 | 1016.0 |
| 20260901054548 | 68 | 257 | 0.0 | 0.0 | 0.00 | 0.00 | 0.00 | 87 | 1016.0 |
| 20260901053548 | 68 | 257 | 0.0 | 0.0 | 0.00 | 0.00 | 0.00 | 87 | 1016.2 |
| 20260901053058 | 68 | 257 | 0.0 | 0.0 | 0.00 | 0.00 | 0.00 | 87 | 1016.2 |
| 20260901052547 | 68 | 258 | 0.0 | 0.0 | 0.00 | 0.00 | 0.00 | 87 | 1016.1 |
| 20260901052050 | 68 | 258 | 0.0 | 0.0 | 0.00 | 0.00 | 0.00 | 87 | 1016.1 |
| 20260901051549 | 68 | 257 | 0.0 | 0.0 | 0.00 | 0.00 | 0.00 | 88 | 1016.1 |
| 20260901051047 | 68 | 257 | 0.0 | 0.0 | 0.00 | 0.00 | 0.00 | 88 | 1016.1 |
| 20260901050550 | 68 | 257 | 0.0 | 0.0 | 0.00 | 0.00 | 0.00 | 88 | 1016.3 |
| 20260901050046 | 68 | 257 | 0.0 | 0.0 | 0.00 | 0.00 | 0.00 | 88 | 1016.3 |
| 20260901045546 | 68 | 257 | 0.0 | 0.0 | 0.00 | 0.00 | 0.00 | 88 | 1016.3 |
| 20260901045045 | 68 | 257 | 0.0 | 0.0 | 0.00 | 0.00 | 0.00 | 88 | 1016.3 |
| 20260901044601 | 68 | 257 | 0.0 | 0.0 | 0.00 | 0.00 | 0.00 | 88 | 1016.4 |
| 20260901043547 | 68 | 257 | 0.0 | 0.0 | 0.00 | 0.00 | 0.00 | 88 | 1016.3 |
| 20260901043048 | 68 | 258 | 0.0 | 0.0 | 0.00 | 0.20 | 0.00 | 88 | 1016.4 |
| 20260901042546 | 68 | 257 | 0.0 | 0.0 | 0.00 | 0.20 | 0.00 | 88 | 1016.5 |
| 20260901042046 | 68 | 257 | 0.0 | 0.0 | 0.00 | 0.20 | 0.00 | 88 | 1016.6 |
| 20260901041545 | 68 | 256 | 0.0 | 0.0 | 0.00 | 0.20 | 0.00 | 88 | 1016.6 |
| 20260901041050 | 68 | 257 | 0.0 | 0.0 | 0.00 | 0.20 | 0.00 | 88 | 1016.6 |
| 20260901040546 | 68 | 256 | 0.0 | 0.0 | 0.00 | 0.20 | 0.00 | 88 | 1016.6 |
| 20260901040046 | 68 | 256 | 0.0 | 0.0 | 0.00 | 0.20 | 0.00 | 88 | 1016.6 |
| 20260901035548 | 68 | 256 | 0.0 | 0.0 | 0.00 | 0.20 | 0.00 | 87 | 1016.7 |
| 20260901035048 | 68 | 255 | 0.0 | 0.0 | 0.00 | 0.20 | 0.00 | 87 | 1016.8 |
| 20260901034544 | 68 | 234 | 0.0 | 0.0 | 0.00 | 0.20 | 0.00 | 87 | 1016.7 |
| 20260901033539 | 68 | 234 | 0.0 | 0.0 | 0.00 | 0.20 | 0.00 | 86 | 1016.7 |
| 20260901033039 | 68 | 234 | 0.0 | 0.0 | 0.00 | 0.90 | 0.00 | 86 | 1016.7 |
| 20260901032538 | 68 | 234 | 0.0 | 0.0 | 0.00 | 0.90 | 0.00 | 86 | 1016.7 |
| 20260901032038 | 68 | 234 | 0.0 | 0.0 | 0.00 | 0.90 | 0.00 | 85 | 1016.7 |
| 20260901031538 | 68 | 234 | 0.0 | 0.0 | 0.00 | 0.90 | 0.00 | 85 | 1016.6 |
| 20260901031037 | 68 | 234 | 0.0 | 0.0 | 0.00 | 0.90 | 0.00 | 85 | 1016.6 |
| 20260901030537 | 68 | 234 | 0.0 | 0.0 | 0.00 | 0.90 | 0.00 | 84 | 1016.6 |
| 20260901030047 | 68 | 233 | 0.0 | 0.0 | 0.00 | 0.90 | 0.00 | 84 | 1016.6 |
| 20260901025538 | 68 | 233 | 0.0 | 0.0 | 0.00 | 0.90 | 0.00 | 84 | 1016.6 |
| 20260901025040 | 68 | 233 | 0.0 | 0.0 | 0.00 | 0.90 | 0.00 | 84 | 1016.6 |
| 20260901024538 | 68 | 233 | 0.0 | 0.0 | 0.00 | 0.90 | 0.00 | 84 | 1016.6 |
| 20260901023537 | 68 | 243 | 0.0 | 0.0 | 0.00 | 0.90 | 0.00 | 84 | 1016.6 |
| 20260901023036 | 68 | 298 | 0.0 | 0.0 | 0.00 | 0.94 | 0.00 | 84 | 1016.6 |
| 20260901022536 | 68 | 314 | 0.0 | 0.0 | 0.00 | 0.94 | 0.00 | 84 | 1016.7 |
| 20260901022035 | 68 | 284 | 0.0 | 0.0 | 0.00 | 0.94 | 0.00 | 84 | 1016.7 |
| 20260901021535 | 68 | 279 | 0.0 | 0.0 | 0.00 | 0.94 | 0.00 | 83 | 1016.7 |
| 20260901021036 | 69 | 279 | 0.0 | 0.0 | 0.00 | 0.94 | 0.00 | 83 | 1016.8 |
| 20260901020536 | 69 | 272 | 0.0 | 0.0 | 0.00 | 0.94 | 0.00 | 83 | 1016.9 |
| 20260901020035 | 69 | 272 | 0.0 | 0.0 | 0.00 | 0.94 | 0.00 | 83 | 1016.9 |
| 20260901015534 | 69 | 255 | 0.0 | 0.0 | 0.00 | 0.94 | 0.00 | 82 | 1017.0 |
| 20260901015036 | 69 | 324 | 0.0 | 0.0 | 0.00 | 0.94 | 0.00 | 82 | 1017.0 |
| 20260901014540 | 69 | 317 | 0.0 | 0.0 | 0.00 | 0.94 | 0.00 | 82 | 1017.0 |
| 20260901013535 | 68 | 354 | 0.0 | 0.0 | 0.00 | 0.94 | 0.00 | 82 | 1017.0 |
| 20260901013034 | 68 | 18 | 0.0 | 0.0 | 0.00 | 0.94 | 0.00 | 83 | 1016.9 |
| 20260901012538 | 68 | 281 | 0.0 | 0.0 | 0.00 | 0.94 | 0.00 | 83 | 1016.8 |
| 20260901012034 | 69 | 347 | 0.0 | 0.0 | 0.00 | 0.94 | 0.00 | 83 | 1016.9 |
| 20260901011533 | 69 | 48 | 0.0 | 0.0 | 0.00 | 0.94 | 0.00 | 83 | 1016.9 |
| 20260901011033 | 69 | 51 | 0.0 | 0.0 | 0.00 | 0.94 | 0.00 | 83 | 1016.9 |
| 20260901010533 | 69 | 297 | 0.0 | 0.0 | 0.00 | 0.94 | 0.00 | 82 | 1016.9 |
| 20260901010034 | 69 | 257 | 0.0 | 0.0 | 0.00 | 0.94 | 0.00 | 83 | 1017.0 |
| 20260901005534 | 69 | 5 | 0.0 | 0.0 | 0.00 | 0.94 | 0.00 | 83 | 1017.0 |
| 20260901005032 | 69 | 354 | 0.0 | 0.0 | 0.00 | 0.94 | 0.00 | 83 | 1017.0 |
| 20260901004538 | 69 | 41 | 0.0 | 0.0 | 0.00 | 0.94 | 0.00 | 83 | 1016.9 |
| 20260901003534 | 69 | 290 | 0.0 | 1.0 | 0.00 | 0.94 | 0.00 | 83 | 1016.8 |
| 20260901003038 | 69 | 91 | 0.0 | 1.0 | 0.00 | 0.94 | 0.00 | 83 | 1016.9 |
| 20260901002534 | 69 | 39 | 0.0 | 0.0 | 0.00 | 0.94 | 0.00 | 83 | 1016.9 |
| 20260901002034 | 69 | 262 | 0.0 | 0.0 | 0.00 | 0.94 | 0.00 | 83 | 1017.0 |
| 20260901001533 | 69 | 44 | 0.0 | 0.0 | 0.00 | 0.94 | 0.00 | 83 | 1016.9 |
| 20260901001035 | 69 | 44 | 0.0 | 0.0 | 0.00 | 0.94 | 0.00 | 83 | 1016.9 |
| 20260901000533 | 69 | 44 | 0.0 | 0.0 | 0.00 | 0.94 | 0.00 | 83 | 1017.0 |
| 20260901000033 | 69 | 332 | 0.0 | 0.0 | 0.00 | 0.94 | 0.00 | 83 | 1016.9 |
| 20260831235533 | 69 | 39 | 0.0 | 0.0 | 0.00 | 0.94 | 0.00 | 83 | 1017.0 |
| 20260831235033 | 69 | 230 | 0.0 | 0.0 | 0.00 | 0.94 | 0.00 | 83 | 1016.9 |
| 20260831234532 | 69 | 47 | 0.0 | 0.0 | 0.00 | 0.94 | 0.00 | 83 | 1016.9 |
| 20260831233530 | 69 | 354 | 0.0 | 0.0 | 0.00 | 0.94 | 0.00 | 83 | 1016.9 |
| 20260831233030 | 69 | 40 | 0.0 | 0.0 | 0.00 | 0.94 | 0.00 | 83 | 1017.1 |
| 20260831232530 | 69 | 41 | 0.0 | 0.0 | 0.00 | 0.94 | 0.00 | 83 | 1017.0 |